• In Uzbekistan
  • List of Countries
  • For 7 days
  • Water Temperature
  • Satellite Maps
  • Weather Map
  • Weather Widgets
  • user-avatar
    Login

    Hourly Weather Serowe

    Today, 20 June, Thursday

    Time Temperature Precipitation Wind Pressure Humidity
    00:00 +7°C° 0 mm 2 mps 672 mmHg 65%
    01:00 +7°C° 0 mm 2 mps 672 mmHg 70%
    02:00 +6°C° 0 mm 2 mps 672 mmHg 76%
    03:00 +5°C° 0 mm 2 mps 672 mmHg 80%
    04:00 +5°C° 0 mm 2 mps 672 mmHg 84%
    05:00 +5°C° 0 mm 2 mps 672 mmHg 88%
    06:00 +6°C° 0 mm 2 mps 673 mmHg 87%
    07:00 +6°C° 0 mm 2 mps 673 mmHg 86%
    08:00 +7°C° 0 mm 2 mps 673 mmHg 85%
    09:00 +10°C° 0 mm 3 mps 674 mmHg 72%
    10:00 +13°C° 0 mm 4 mps 675 mmHg 59%
    11:00 +16°C° 0 mm 5 mps 675 mmHg 46%
    12:00 +17°C° 0 mm 5 mps 675 mmHg 39%
    13:00 +20°C° 0 mm 5 mps 674 mmHg 32%
    14:00 +21°C° 0 mm 5 mps 673 mmHg 25%
    15:00 +21°C° 0 mm 5 mps 673 mmHg 26%
    16:00 +20°C° 0 mm 4 mps 673 mmHg 28%
    17:00 +19°C° 0 mm 4 mps 672 mmHg 29%
    18:00 +15°C° 0 mm 4 mps 672 mmHg 39%
    19:00 +13°C° 0 mm 3 mps 672 mmHg 49%
    20:00 +10°C° 0 mm 3 mps 672 mmHg 59%
    21:00 +9°C° 0 mm 3 mps 672 mmHg 65%
    22:00 +9°C° 0 mm 2 mps 672 mmHg 70%
    23:00 +8°C° 0 mm 2 mps 672 mmHg 76%

    Tomorrow, 21 June, Friday

    Time Temperature Precipitation Wind Pressure Humidity
    00:00 +8°C° 0 mm 2 mps 672 mmHg 78%
    01:00 +7°C° 0 mm 2 mps 672 mmHg 80%
    02:00 +7°C° 0 mm 2 mps 671 mmHg 83%
    03:00 +7°C° 0 mm 2 mps 671 mmHg 85%
    04:00 +6°C° 0 mm 2 mps 671 mmHg 88%
    05:00 +6°C° 0 mm 2 mps 671 mmHg 90%
    06:00 +7°C° 0 mm 2 mps 672 mmHg 88%
    07:00 +8°C° 0 mm 3 mps 672 mmHg 86%
    08:00 +9°C° 0 mm 3 mps 673 mmHg 84%
    09:00 +12°C° 0 mm 4 mps 673 mmHg 71%
    10:00 +15°C° 0 mm 5 mps 674 mmHg 59%
    11:00 +19°C° 0 mm 5 mps 674 mmHg 47%
    12:00 +20°C° 0 mm 5 mps 674 mmHg 42%
    13:00 +21°C° 0 mm 5 mps 673 mmHg 38%
    14:00 +23°C° 0 mm 5 mps 672 mmHg 34%
    15:00 +22°C° 0 mm 4 mps 672 mmHg 35%
    16:00 +21°C° 0 mm 4 mps 671 mmHg 37%
    17:00 +21°C° 0 mm 3 mps 671 mmHg 39%
    18:00 +18°C° 0 mm 3 mps 670 mmHg 50%
    19:00 +14°C° 0 mm 3 mps 670 mmHg 62%
    20:00 +13°C° 0 mm 2 mps 670 mmHg 73%
    21:00 +12°C° 0 mm 2 mps 670 mmHg 77%
    22:00 +10°C° 0 mm 2 mps 670 mmHg 81%
    23:00 +11°C° 0 mm 1 mps 670 mmHg 85%

    Day after tomorrow, 22 June, Saturday

    Time Temperature Precipitation Wind Pressure Humidity
    00:00 +9°C° 0 mm 2 mps 670 mmHg 87%
    01:00 +9°C° 0 mm 2 mps 669 mmHg 88%
    02:00 +9°C° 0 mm 2 mps 669 mmHg 90%
    03:00 +9°C° 0 mm 1 mps 669 mmHg 90%
    04:00 +9°C° 0 mm 1 mps 669 mmHg 91%
    05:00 +8°C° 0 mm 1 mps 668 mmHg 92%
    06:00 +9°C° 0 mm 1 mps 669 mmHg 89%
    07:00 +10°C° 0 mm 1 mps 669 mmHg 86%
    08:00 +11°C° 0 mm 1 mps 670 mmHg 83%
    09:00 +14°C° 0 mm 1 mps 670 mmHg 68%
    10:00 +17°C° 0 mm 2 mps 671 mmHg 54%
    11:00 +20°C° 0 mm 2 mps 671 mmHg 39%
    12:00 +23°C° 0 mm 2 mps 671 mmHg 34%
    13:00 +25°C° 0 mm 1 mps 671 mmHg 29%
    14:00 +26°C° 0 mm 1 mps 671 mmHg 23%
    15:00 +25°C° 0 mm 1 mps 670 mmHg 24%
    16:00 +24°C° 0 mm 1 mps 670 mmHg 25%
    17:00 +24°C° 0 mm 1 mps 669 mmHg 26%
    18:00 +21°C° 0 mm 1 mps 669 mmHg 34%
    19:00 +18°C° 0 mm 1 mps 668 mmHg 41%
    20:00 +14°C° 0 mm 1 mps 668 mmHg 48%
    21:00 +14°C° 0 mm 1 mps 668 mmHg 50%
    22:00 +13°C° 0 mm 1 mps 668 mmHg 52%
    23:00 +12°C° 0 mm 1 mps 668 mmHg 54%

    23 June, Sunday

    Time Temperature Precipitation Wind Pressure Humidity
    00:00 +12°C° 0 mm 1 mps 667 mmHg 56%
    01:00 +11°C° 0 mm 1 mps 667 mmHg 59%
    02:00 +10°C° 0 mm 0 mps 667 mmHg 61%
    03:00 +10°C° 0 mm 0 mps 667 mmHg 63%
    04:00 +10°C° 0 mm 0 mps 667 mmHg 65%
    05:00 +11°C° 0 mm 1 mps 667 mmHg 67%
    06:00 +12°C° 0 mm 1 mps 667 mmHg 63%
    07:00 +13°C° 0 mm 1 mps 668 mmHg 59%
    08:00 +14°C° 0 mm 1 mps 669 mmHg 54%
    09:00 +18°C° 0 mm 1 mps 669 mmHg 45%
    10:00 +21°C° 0 mm 1 mps 670 mmHg 35%
    11:00 +24°C° 0 mm 2 mps 671 mmHg 25%
    12:00 +25°C° 0 mm 2 mps 670 mmHg 22%
    13:00 +26°C° 0 mm 2 mps 670 mmHg 19%
    14:00 +27°C° 0 mm 3 mps 669 mmHg 15%
    15:00 +26°C° 0 mm 3 mps 669 mmHg 16%
    16:00 +25°C° 0 mm 3 mps 668 mmHg 16%
    17:00 +24°C° 0 mm 3 mps 668 mmHg 16%
    18:00 +20°C° 0 mm 2 mps 668 mmHg 20%
    19:00 +17°C° 0 mm 2 mps 667 mmHg 23%
    20:00 +15°C° 0 mm 2 mps 667 mmHg 27%
    21:00 +14°C° 0 mm 2 mps 667 mmHg 28%
    22:00 +13°C° 0 mm 2 mps 667 mmHg 30%
    23:00 +12°C° 0 mm 2 mps 667 mmHg 31%

    24 June, Monday

    Time Temperature Precipitation Wind Pressure Humidity
    00:00 +12°C° 0 mm 2 mps 667 mmHg 32%
    01:00 +10°C° 0 mm 2 mps 667 mmHg 32%
    02:00 +10°C° 0 mm 2 mps 667 mmHg 33%
    03:00 +9°C° 0 mm 2 mps 667 mmHg 33%
    04:00 +9°C° 0 mm 2 mps 667 mmHg 32%
    05:00 +9°C° 0 mm 1 mps 667 mmHg 31%
    06:00 +10°C° 0 mm 1 mps 668 mmHg 29%
    07:00 +11°C° 0 mm 1 mps 668 mmHg 27%
    08:00 +12°C° 0 mm 1 mps 669 mmHg 24%
    09:00 +15°C° 0 mm 2 mps 670 mmHg 21%
    10:00 +18°C° 0 mm 2 mps 670 mmHg 18%
    11:00 +21°C° 0 mm 3 mps 671 mmHg 15%
    12:00 +22°C° 0 mm 3 mps 670 mmHg 14%
    13:00 +24°C° 0 mm 2 mps 670 mmHg 13%
    14:00 +25°C° 0 mm 2 mps 670 mmHg 12%
    15:00 +25°C° 0 mm 2 mps 669 mmHg 13%
    16:00 +24°C° 0 mm 2 mps 669 mmHg 14%
    17:00 +22°C° 0 mm 3 mps 669 mmHg 15%
    18:00 +19°C° 0 mm 3 mps 669 mmHg 24%
    19:00 +16°C° 0 mm 3 mps 668 mmHg 33%
    20:00 +12°C° 0 mm 3 mps 668 mmHg 42%
    21:00 +13°C° 0 mm 2 mps 668 mmHg 52%
    22:00 +12°C° 0 mm 2 mps 668 mmHg 62%
    23:00 +10°C° 0 mm 2 mps 669 mmHg 72%

    25 June, Tuesday

    Time Temperature Precipitation Wind Pressure Humidity
    00:00 +9°C° 0 mm 2 mps 669 mmHg 75%
    01:00 +9°C° 0 mm 2 mps 669 mmHg 79%
    02:00 +8°C° 0 mm 2 mps 668 mmHg 82%
    03:00 +8°C° 0 mm 2 mps 669 mmHg 84%
    04:00 +8°C° 0 mm 2 mps 669 mmHg 87%
    05:00 +8°C° 0 mm 2 mps 669 mmHg 90%
    06:00 +9°C° 0 mm 3 mps 670 mmHg 89%
    07:00 +10°C° 0 mm 4 mps 670 mmHg 88%
    08:00 +10°C° 0 mm 4 mps 671 mmHg 87%
    09:00 +12°C° 0 mm 5 mps 671 mmHg 78%
    10:00 +14°C° 0 mm 5 mps 672 mmHg 69%
    11:00 +16°C° 0 mm 6 mps 672 mmHg 60%
    12:00 +17°C° 0 mm 6 mps 672 mmHg 55%
    13:00 +19°C° 0 mm 6 mps 671 mmHg 49%
    14:00 +21°C° 0 mm 6 mps 671 mmHg 43%
    15:00 +20°C° 0 mm 5 mps 671 mmHg 46%
    16:00 +19°C° 0 mm 5 mps 670 mmHg 49%
    17:00 +17°C° 0 mm 5 mps 670 mmHg 52%
    18:00 +15°C° 0 mm 4 mps 670 mmHg 63%
    19:00 +13°C° 0 mm 3 mps 670 mmHg 75%
    20:00 +10°C° 0 mm 3 mps 670 mmHg 87%
    21:00 +10°C° 0 mm 3 mps 670 mmHg 88%
    22:00 +9°C° 0 mm 3 mps 671 mmHg 89%
    23:00 +9°C° 0 mm 3 mps 671 mmHg 91%
    Show more